IRIDIUM 106 1 41917U 17003A 26173.46766422 -.00000010 00000+0 -10788-4 0 9999 2 41917 86.3960 86.3489 0001807 89.2044 270.9359 14.34217489493966 IRIDIUM 103 1 41918U 17003B 26173.31544266 .00000036 00000+0 58054-5 0 9999 2 41918 86.3963 86.3124 0002208 77.2894 282.8548 14.34217880493969 IRIDIUM 109 1 41919U 17003C 26173.46132204 .00000004 00000+0 -54887-5 0 9997 2 41919 86.3962 86.3108 0002155 82.5154 277.6287 14.34217676493954 IRIDIUM 102 1 41920U 17003D 26173.49937391 .00000147 00000+0 45441-4 0 9994 2 41920 86.3962 86.2184 0002301 85.9651 274.1808 14.34216553494046 IRIDIUM 105 1 41921U 17003E 26173.59751444 .00000170 00000+0 53582-4 0 9990 2 41921 86.3960 54.6081 0002475 81.4651 278.6825 14.34218124495914 IRIDIUM 104 1 41922U 17003F 26173.30275512 .00000189 00000+0 60322-4 0 9997 2 41922 86.3963 86.3434 0002388 79.1865 280.9599 14.34219453494005 IRIDIUM 114 1 41923U 17003G 26173.23933146 .00000010 00000+0 -36252-5 0 9994 2 41923 86.3961 86.3529 0002174 79.8456 280.2985 14.34217604493978 IRIDIUM 108 1 41924U 17003H 26173.40715207 .00000092 00000+0 25806-4 0 9991 2 41924 86.3956 54.5775 0002298 86.1997 273.9461 14.34216726495852 IRIDIUM 112 1 41925U 17003J 26173.50572120 -.00000080 00000+0 -35486-4 0 9992 2 41925 86.3956 86.0833 0002251 83.5031 276.6421 14.34217048494030 IRIDIUM 111 1 41926U 17003K 26173.49303985 .00000182 00000+0 58062-4 0 9998 2 41926 86.3959 86.1595 0002234 82.9876 277.1574 14.34219806494018 IRIDIUM 113 1 42803U 17039A 26173.68230531 .00000038 00000+0 65695-5 0 9990 2 42803 86.3975 319.8810 0002274 89.6691 270.4765 14.34217795471973 IRIDIUM 123 1 42804U 17039B 26173.44470925 .00000017 00000+0 -91139-6 0 9999 2 42804 86.3968 351.4390 0001872 88.6369 271.5042 14.34217541470704 IRIDIUM 120 1 42805U 17039C 26173.67596298 .00000201 00000+0 64767-4 0 9996 2 42805 86.3964 319.6655 0002097 97.5432 262.6002 14.34218487471967 IRIDIUM 115 1 42806U 17039D 26173.45705192 .00000264 00000+0 72396-4 0 9994 2 42806 86.4500 319.8864 0002018 93.5194 266.6237 14.43278617475029 IRIDIUM 118 1 42807U 17039E 26173.75549642 .00000084 00000+0 22901-4 0 9991 2 42807 86.3972 351.3067 0002220 88.9850 271.1600 14.34217640470748 IRIDIUM 117 1 42808U 17039F 26173.21637544 .00000070 00000+0 17820-4 0 9991 2 42808 86.3972 351.4899 0002100 88.7071 271.4365 14.34218129470691 IRIDIUM 126 1 42809U 17039G 26173.73012507 .00000004 00000+0 -56037-5 0 9997 2 42809 86.3968 351.3264 0002077 86.7720 273.3714 14.34217161470744 IRIDIUM 124 1 42810U 17039H 26173.73752085 .00000241 00000+0 65536-4 0 9996 2 42810 86.4486 288.0378 0002212 94.4053 265.7401 14.43280749475914 IRIDIUM 128 1 42811U 17039J 26173.51155881 .00000024 00000+0 15325-5 0 9995 2 42811 86.3964 22.9239 0002056 91.2605 268.8826 14.34217722470742 IRIDIUM 121 1 42812U 17039K 26173.74915441 .00000101 00000+0 29177-4 0 9992 2 42812 86.3975 351.3462 0002178 92.6077 267.5368 14.34217183470620 IRIDIUM 133 1 42955U 17061A 26173.33396663 .00000054 00000+0 12266-4 0 9997 2 42955 86.3968 23.1160 0002116 88.2827 271.8611 14.34217664455519 IRIDIUM 100 1 42956U 17061B 26173.32762357 .00000136 00000+0 41609-4 0 9998 2 42956 86.3965 23.0371 0002181 88.7088 271.4358 14.34217221455519 IRIDIUM 122 1 42957U 17061C 26173.50521555 .00000079 00000+0 21078-4 0 9996 2 42957 86.3964 22.9631 0002149 85.2832 274.8609 14.34218276455549 IRIDIUM 129 1 42958U 17061D 26173.32128008 .00000134 00000+0 40955-4 0 9990 2 42958 86.3971 23.1071 0002422 84.8265 275.3207 14.34217238455534 IRIDIUM 119 1 42959U 17061E 26173.28956102 .00000162 00000+0 50754-4 0 9999 2 42959 86.3966 23.1162 0002168 84.2424 275.9019 14.34220195455542 IRIDIUM 107 1 42960U 17061F 26173.51790112 .00000163 00000+0 51246-4 0 9992 2 42960 86.3969 23.0419 0001922 86.0803 274.0612 14.34217756455581 IRIDIUM 132 1 42961U 17061G 26173.52424402 .00000062 00000+0 14950-4 0 9999 2 42961 86.3966 23.0188 0002171 86.4900 273.6544 14.34217449455589 IRIDIUM 136 1 42962U 17061H 26173.55596357 .00000138 00000+0 42192-4 0 9995 2 42962 86.3967 23.0122 0002200 89.0707 271.0741 14.34217711455602 IRIDIUM 139 1 42963U 17061J 26173.49253097 .00000031 00000+0 41403-5 0 9997 2 42963 86.3967 23.1008 0002089 89.2908 270.8527 14.34217817455603 IRIDIUM 125 1 42964U 17061K 26173.34032427 .00000169 00000+0 53154-4 0 9991 2 42964 86.3970 23.2256 0002021 73.2263 286.9154 14.34216079455598 IRIDIUM 135 1 43070U 17083A 26173.45397207 .00000069 00000+0 17566-4 0 9992 2 43070 86.3970 319.8129 0002168 91.9616 268.1828 14.34217972444907 IRIDIUM 138 1 43071U 17083B 26173.68864819 -.00000008 00000+0 -98869-5 0 9997 2 43071 86.3979 319.4113 0002147 86.4584 273.6858 14.34217257444928 IRIDIUM 116 1 43072U 17083C 26173.65693413 .00000086 00000+0 23484-4 0 9999 2 43072 86.3969 319.7139 0002077 100.9228 259.2202 14.34218155444952 IRIDIUM 130 1 43073U 17083D 26173.69498624 .00000183 00000+0 58459-4 0 9999 2 43073 86.3976 319.9737 0001972 95.5795 264.5626 14.34216912444901 IRIDIUM 151 1 43074U 17083E 26173.66961946 .00000127 00000+0 38229-4 0 9990 2 43074 86.3971 319.7665 0002165 93.1732 266.9711 14.34218525444920 IRIDIUM 134 1 43075U 17083F 26173.63790705 .00000150 00000+0 46491-4 0 9997 2 43075 86.3973 319.7878 0002130 94.0267 266.1173 14.34217551444881 IRIDIUM 137 1 43076U 17083G 26173.65059258 .00000053 00000+0 12038-4 0 9993 2 43076 86.3974 319.8755 0002396 102.7949 257.3515 14.34217828444953 IRIDIUM 141 1 43077U 17083H 26173.64424966 .00000008 00000+0 -43572-5 0 9994 2 43077 86.3965 319.7087 0002092 90.9926 269.1509 14.34217444444955 IRIDIUM 153 1 43078U 17083J 26173.59642809 .00000040 00000+0 72833-5 0 9994 2 43078 86.3963 288.2090 0002208 90.3626 269.7823 14.34217916446050 IRIDIUM 131 1 43079U 17083K 26173.70133247 .00000055 00000+0 12520-4 0 9991 2 43079 86.3975 319.8710 0002259 92.5639 267.5815 14.34217609444894 IRIDIUM 144 1 43249U 18030A 26173.74230625 .00000185 00000+0 58902-4 0 9993 2 43249 86.3962 288.0770 0002178 98.0967 262.0476 14.34218940430939 IRIDIUM 149 1 43250U 18030B 26173.74865080 .00000022 00000+0 78004-6 0 9991 2 43250 86.3962 288.0414 0002282 93.8932 266.2525 14.34217752430950 IRIDIUM 157 1 43251U 18030C 26173.55837269 .00000073 00000+0 18868-4 0 9995 2 43251 86.3963 288.1742 0002221 94.4564 265.6886 14.34218149430907 IRIDIUM 140 1 43252U 18030D 26173.57739819 .00000171 00000+0 54022-4 0 9991 2 43252 86.3962 288.1787 0002149 94.6558 265.4883 14.34219282430960 IRIDIUM 145 1 43253U 18030E 26173.35540933 .00000071 00000+0 18347-4 0 9994 2 43253 86.3963 288.2439 0002125 102.7933 257.3500 14.34218138430863 IRIDIUM 146 1 43254U 18030F 26173.61545583 .00000079 00000+0 21139-4 0 9991 2 43254 86.3962 288.1473 0002187 98.1046 262.0398 14.34217304430919 IRIDIUM 148 1 43255U 18030G 26173.58374364 .00000047 00000+0 97304-5 0 9998 2 43255 86.3964 288.2039 0002301 95.9114 264.2344 14.34217903430943 IRIDIUM 142 1 43256U 18030H 26173.76133556 .00000100 00000+0 28591-4 0 9996 2 43256 86.3961 288.0183 0002195 99.8737 260.2706 14.34218345430932 IRIDIUM 150 1 43257U 18030J 26173.59008501 .00000063 00000+0 15577-4 0 9997 2 43257 86.3963 288.2063 0002166 94.7335 265.4108 14.34218169430937 IRIDIUM 143 1 43258U 18030K 26173.36175201 .00000085 00000+0 23448-4 0 9995 2 43258 86.3966 288.3945 0002148 97.1745 262.9695 14.34218233430837 IRIDIUM 161 1 43478U 18047C 26173.50746989 .00000232 00000+0 63014-4 0 9997 2 43478 86.4482 86.2470 0002545 82.4588 277.6902 14.43280929425903 IRIDIUM 152 1 43479U 18047D 26173.75308041 .00000178 00000+0 56481-4 0 9997 2 43479 86.3956 86.0054 0002307 82.5668 277.5790 14.34219093423288 IRIDIUM 147 1 43480U 18047E 26173.48035006 .00000049 00000+0 10315-4 0 9990 2 43480 86.3959 86.1247 0002141 86.5157 273.6283 14.34217978423241 IRIDIUM 110 1 43481U 18047F 26173.27738750 .00000060 00000+0 14337-4 0 9995 2 43481 86.3961 86.3017 0002521 80.0843 280.0638 14.34218086423208 IRIDIUM 162 1 43482U 18047G 26173.50116500 .00000227 00000+0 61592-4 0 9995 2 43482 86.4481 86.1407 0002241 82.6341 277.5115 14.43284147425897 IRIDIUM 160 1 43569U 18061A 26173.43252897 .00000020 00000+0 16220-6 0 9990 2 43569 86.3955 54.6041 0002162 85.2527 274.8915 14.34217551414126 IRIDIUM 166 1 43570U 18061B 26173.59743566 .00000023 00000+0 10305-5 0 9997 2 43570 86.3958 54.4858 0002134 87.4075 272.7365 14.34217846414174 IRIDIUM 158 1 43571U 18061C 26173.21687983 .00000076 00000+0 19953-4 0 9992 2 43571 86.3957 54.6547 0002172 83.0123 277.1320 14.34218111414085 IRIDIUM 165 1 43572U 18061D 26173.03294455 .00000072 00000+0 18777-4 0 9990 2 43572 86.3959 54.7780 0002070 88.0976 272.0457 14.34218031414082 IRIDIUM 155 1 43573U 18061E 26173.41350074 -.00000005 00000+0 -86865-5 0 9995 2 43573 86.3951 54.4875 0001974 83.5287 276.6133 14.34217429414108 IRIDIUM 154 1 43574U 18061F 26173.39447286 .00000063 00000+0 15436-4 0 9992 2 43574 86.3959 54.6296 0002152 88.8862 271.2581 14.34217318414152 IRIDIUM 163 1 43575U 18061G 26173.37544500 .00000059 00000+0 13914-4 0 9992 2 43575 86.3956 54.5527 0002219 83.2828 276.8621 14.34217124414129 IRIDIUM 156 1 43576U 18061H 26173.41984930 .00000167 00000+0 52702-4 0 9991 2 43576 86.3957 54.5414 0002029 84.0962 276.0465 14.34216982414122 IRIDIUM 164 1 43577U 18061J 26173.40081617 .00000041 00000+0 76031-5 0 9994 2 43577 86.3957 54.5898 0002201 89.8282 270.3166 14.34217402414166 IRIDIUM 159 1 43578U 18061K 26173.57840829 .00000012 00000+0 -27571-5 0 9995 2 43578 86.3956 54.4522 0002265 83.7769 276.3685 14.34217711414156 IRIDIUM 180 1 43922U 19002A 26173.43836695 .00000089 00000+0 24822-4 0 9993 2 43922 86.3973 351.4018 0002252 89.5631 270.5823 14.34217887389746 IRIDIUM 176 1 43923U 19002B 26173.73222093 .00000560 00000+0 84928-4 0 9995 2 43923 86.6094 351.2214 0002377 93.9709 266.1780 14.72272955400064 IRIDIUM 168 1 43924U 19002C 26173.43201583 .00000178 00000+0 56455-4 0 9993 2 43924 86.3971 351.4817 0002243 90.5709 269.5744 14.34215779389727 IRIDIUM 173 1 43925U 19002D 26173.48910822 .00000127 00000+0 38259-4 0 9998 2 43925 86.3970 351.3464 0002186 88.1798 271.9648 14.34218000389710 IRIDIUM 169 1 43926U 19002E 26173.05158676 .00000200 00000+0 58711-4 0 9990 2 43926 86.4222 23.1592 0001714 76.7643 283.3746 14.38610811390927 IRIDIUM 172 1 43927U 19002F 26173.48276207 .00000177 00000+0 56280-4 0 9991 2 43927 86.3970 351.3571 0002252 89.8756 270.2698 14.34217350389722 IRIDIUM 175 1 43928U 19002G 26173.61308602 .00000238 00000+0 64401-4 0 9994 2 43928 86.4515 288.2526 0003215 163.9674 196.1630 14.43615161399769 IRIDIUM 171 1 43929U 19002H 26173.74281116 .00000064 00000+0 15875-4 0 9997 2 43929 86.3981 351.5551 0002069 92.5761 267.5672 14.34217947389755 IRIDIUM 170 1 43930U 19002J 26173.73839951 .00000553 00000+0 83807-4 0 9997 2 43930 86.6093 351.2212 0002366 90.2574 269.8915 14.72273383400074 IRIDIUM 167 1 43931U 19002K 26173.73646849 .00000054 00000+0 12338-4 0 9997 2 43931 86.3973 351.2735 0001942 95.5794 264.5623 14.34217840389753 IRIDIUM 181 1 56726U 23068S 26173.37549057 .00000176 00000+0 46273-4 0 9993 2 56726 86.4495 54.6218 0002410 88.5683 271.5794 14.43308586163181 IRIDIUM 177 1 56727U 23068T 26173.66310325 .00000778 00000+0 98931-4 0 9996 2 56727 86.1967 326.1901 0002339 88.7942 271.3547 14.80233128167176 IRIDIUM 174 1 56728U 23068U 26173.45420853 .00000597 00000+0 90788-4 0 9993 2 56728 86.6100 351.4880 0002421 84.7984 275.3509 14.72269781166796 IRIDIUM 178 1 56729U 23068V 26173.31421441 .00000707 00000+0 89584-4 0 9998 2 56729 86.6535 23.2170 0002594 85.0138 275.1380 14.80240853167122 IRIDIUM 179 1 56730U 23068W 26173.57923108 .00000649 00000+0 81893-4 0 9995 2 56730 86.6771 32.1020 0002463 88.1406 272.0097 14.80238244167162